Regional Weather Roundup
Issued by NWS Charleston, WV

Home | Current Version | Previous Version | Graphics & Text | Print | Product List | Glossary On
Versions: 1 2 3 4 5 6 7 8 9 10 11 12 13 14 15 16 17 18 19 20 21 22 23 24 25 26 27 28 29 30 31 32 33 34 35 36 37 38 39 40 41 42 43 44 45 46 47 48 49 50
000
ASUS41 KRLX 230710
RWRRLX
West Virginia Regional Weather Roundup
National Weather Service Charleston WV
300 AM EDT TUE SEP 23 2014

Note: "fair" indicates few or no clouds below 12,000 feet with no
significant weather and/or obstructions to visibility.

WVZ003-230800-
Northern Panhandle of West Virginia

CITY           SKY/WX    TMP DP  RH WIND       PRES   REMARKS
WHEELING       CLEAR     43  40  89 N3        30.30S
$$

WVZ009-230800-
Northwest West Virginia

CITY           SKY/WX    TMP DP  RH WIND       PRES   REMARKS
PARKERSBURG    MOCLDY    42  40  92 CALM      30.32S
$$

WVZ006-230800-
Western West Virginia

CITY           SKY/WX    TMP DP  RH WIND       PRES   REMARKS
HUNTINGTON     CLEAR     48  45  89 CALM      30.28S
$$

WVZ015-230800-
West Central West Virginia

CITY           SKY/WX    TMP DP  RH WIND       PRES   REMARKS
CHARLESTON     PTCLDY    47  47 100 CALM      30.28R FOG
$$

WVZ031-230800-
North Central West Virginia

CITY           SKY/WX    TMP DP  RH WIND       PRES   REMARKS
CLARKSBURG     FOG       41  41 100 CALM      30.29S VSB 1/4
MORGANTOWN     FOG       45  42  89 CALM      30.30S VSB 3/4
$$

WVZ035-042-045-230800-
South Central West Virginia

CITY           SKY/WX    TMP DP  RH WIND       PRES   REMARKS
BECKLEY        CLEAR     42  40  92 SE3       30.27F
BLUEFIELD      CLEAR     46  41  82 CALM      30.28R
LEWISBURG      FOG       40  38  93 CALM      30.28F VSB 1/2
$$

WVZ047-230800-
Northern Mountains of West Virginia

CITY           SKY/WX    TMP DP  RH WIND       PRES   REMARKS
ELKINS         FOG       41  41 100 SE3       30.30S VSB 1/2
$$

WVZ052-230800-
Eastern Panhandle of West Virginia

CITY           SKY/WX    TMP DP  RH WIND       PRES   REMARKS
MARTINSBURG    CLEAR     51  39  63 CALM      30.28R
PETERSBURG     CLEAR     41  39  93 CALM      30.30R FOG
$$



USA.gov is the U.S. government's official web portal to all federal, state and local government web resources and services.